sat.trackr.live / text

‹ back to catalog

STARLINK-4478

NORAD 53529 · 2022-101C

PAYLOAD ACTIVE UNKNOWN

§ Identity

Operator
Country
US
Launch date
2022-08-19
Launch site
AFETR
Launch vehicle
Mass (kg)
RCS (m²)

Purposes: comms

External: N2YO · Heavens-Above · Gunter

§ Orbital elements

Epoch: 2026-05-25T03:36:02.317248Z

Period
95.14 min
Inclination
53.2145°
Eccentricity
0.0002395
Mean motion
15.13588559 rev/d
Perigee alt
523.6 km
Apogee alt
526.9 km
Semi-major
6,903.4 km
B*
1.0824e-3
RAAN
88.8309°
Arg perigee
22.7130°
Mean anomaly
337.3970°
Rev number
20,773

§ Raw data

STARLINK-44781 53529U 22101C   26145.15002682  .00019403  00000+0  10824-2 0  99952 53529  53.2145  88.8309 0002395  22.7130 337.3970 15.13588559207737

JSON: /api/v1/satellites/53529 · /tle

For live sub-satellite position, see the globe view (requires WebGL).

§ Visibility from observer

Set your observer location to see the next 7 days of passes ≥ 10°. The values pass through the URL so the page stays shareable.

No JS? Fill the form by hand. The geolocation button needs JavaScript.